Time,TemperatureF,DewpointF,PressureIn,WindDirection,WindDirectionDegrees,WindSpeedMPH,WindSpeedGustMPH,Humidity,HourlyPrecipIn,Conditions,Clouds,dailyrainin,SoftwareType,DateUTC
2013-03-26 00:00:00,71.8,49.3,29.96,North,0,9.0,13.0,45,0.00,,,0.03,WeatherCatV1.13B119,2013-03-26 04:00:00,
2013-03-26 00:01:00,71.8,49.3,29.96,NW,319,8.0,15.0,45,0.00,,,0.00,WeatherCatV1.13B119,2013-03-26 04:01:00,
2013-03-26 00:06:00,71.6,48.5,29.96,NNW,333,9.0,9.0,44,0.00,,,0.00,WeatherCatV1.13B119,2013-03-26 04:06:00,
2013-03-26 00:11:00,71.5,49.0,29.96,WNW,296,6.0,12.0,45,0.00,,,0.00,WeatherCatV1.13B119,2013-03-26 04:11:00,
2013-03-26 00:16:00,71.4,49.5,29.96,NNW,342,9.0,16.0,46,0.00,,,0.00,WeatherCatV1.13B119,2013-03-26 04:16:00,
2013-03-26 00:21:00,71.2,48.8,29.97,NW,323,6.0,18.0,45,0.00,,,0.00,WeatherCatV1.13B119,2013-03-26 04:21:00,
2013-03-26 00:26:00,71.0,48.6,29.97,NW,322,8.0,16.0,45,0.00,,,0.00,WeatherCatV1.13B119,2013-03-26 04:26:00,
2013-03-26 00:31:00,70.8,48.4,29.97,North,0,1.0,12.0,45,0.00,,,0.00,WeatherCatV1.13B119,2013-03-26 04:31:00,
2013-03-26 00:36:00,70.6,48.8,29.97,WNW,285,5.0,13.0,46,0.00,,,0.00,WeatherCatV1.13B119,2013-03-26 04:36:00,
2013-03-26 00:41:00,70.4,47.4,29.98,NNW,329,7.0,13.0,44,0.00,,,0.00,WeatherCatV1.13B119,2013-03-26 04:41:00,
2013-03-26 00:46:00,70.3,47.9,29.98,NW,326,8.0,15.0,45,0.00,,,0.00,WeatherCatV1.13B119,2013-03-26 04:46:00,
2013-03-26 00:51:00,70.2,47.9,29.98,NNW,331,7.0,16.0,45,0.00,,,0.00,WeatherCatV1.13B119,2013-03-26 04:51:00,
2013-03-26 00:56:00,70.1,49.5,29.98,NNW,341,3.0,12.0,48,0.00,,,0.00,WeatherCatV1.13B119,2013-03-26 04:56:00,
2013-03-26 01:01:00,70.0,49.9,29.98,NNW,330,7.0,12.0,49,0.00,,,0.00,WeatherCatV1.13B119,2013-03-26 05:01:00,
2013-03-26 01:06:00,69.8,48.1,29.99,NNW,346,5.0,15.0,46,0.00,,,0.00,WeatherCatV1.13B119,2013-03-26 05:06:00,
2013-03-26 01:11:00,69.7,48.0,29.98,North,350,5.0,13.0,46,0.00,,,0.00,WeatherCatV1.13B119,2013-03-26 05:11:00,
2013-03-26 01:16:00,69.5,47.2,29.97,NNE,28,1.0,16.0,45,0.00,,,0.00,WeatherCatV1.13B119,2013-03-26 05:16:00,
2013-03-26 01:21:00,69.4,47.7,29.98,NW,318,9.0,11.0,46,0.00,,,0.00,WeatherCatV1.13B119,2013-03-26 05:21:00,
2013-03-26 01:26:00,69.1,46.9,29.97,NW,318,6.0,15.0,45,0.00,,,0.00,WeatherCatV1.13B119,2013-03-26 05:26:00,
2013-03-26 01:31:00,69.0,47.3,29.98,NW,323,3.0,10.0,46,0.00,,,0.00,WeatherCatV1.13B119,2013-03-26 05:31:00,
2013-03-26 01:36:00,68.8,47.7,29.97,NNW,331,14.0,16.0,47,0.00,,,0.00,WeatherCatV1.13B119,2013-03-26 05:36:00,
2013-03-26 01:41:00,68.7,46.5,29.97,North,0,13.0,15.0,45,0.00,,,0.00,WeatherCatV1.13B119,2013-03-26 05:41:00,
2013-03-26 01:46:00,68.5,46.9,29.97,North,0,6.0,10.0,46,0.00,,,0.00,WeatherCatV1.13B119,2013-03-26 05:46:00,
2013-03-26 01:51:00,68.4,46.2,29.97,NNW,330,2.0,18.0,45,0.00,,,0.00,WeatherCatV1.13B119,2013-03-26 05:51:00,
2013-03-26 01:56:00,68.3,46.7,29.97,NNW,340,11.0,13.0,46,0.00,,,0.00,WeatherCatV1.13B119,2013-03-26 05:56:00,
2013-03-26 02:01:00,68.2,47.8,29.97,NNW,336,11.0,12.0,48,0.00,,,0.00,WeatherCatV1.13B119,2013-03-26 06:01:00,
2013-03-26 02:06:00,68.1,48.7,29.97,WNW,302,0.0,12.0,50,0.00,,,0.00,WeatherCatV1.13B119,2013-03-26 06:06:00,
2013-03-26 02:11:00,68.0,47.0,29.97,NW,319,8.0,11.0,47,0.00,,,0.00,WeatherCatV1.13B119,2013-03-26 06:11:00,
2013-03-26 02:16:00,67.8,46.3,29.97,North,0,5.0,13.0,46,0.00,,,0.00,WeatherCatV1.13B119,2013-03-26 06:16:00,
2013-03-26 02:21:00,67.6,44.9,29.97,NW,305,3.0,9.0,44,0.00,,,0.00,WeatherCatV1.13B119,2013-03-26 06:21:00,
2013-03-26 02:26:00,67.5,47.1,29.97,North,355,9.0,10.0,48,0.00,,,0.00,WeatherCatV1.13B119,2013-03-26 06:26:00,
2013-03-26 02:31:00,67.4,47.0,29.97,NW,319,5.0,13.0,48,0.00,,,0.00,WeatherCatV1.13B119,2013-03-26 06:31:00,
2013-03-26 02:36:00,67.3,45.8,29.97,West,275,6.0,14.0,46,0.00,,,0.00,WeatherCatV1.13B119,2013-03-26 06:36:00,
2013-03-26 02:41:00,67.2,46.8,29.96,NW,306,6.0,14.0,48,0.00,,,0.00,WeatherCatV1.13B119,2013-03-26 06:41:00,
2013-03-26 02:46:00,67.0,45.5,29.96,NNW,342,6.0,12.0,46,0.00,,,0.00,WeatherCatV1.13B119,2013-03-26 06:46:00,
2013-03-26 02:51:00,66.7,44.7,29.97,NNW,338,12.0,16.0,45,0.00,,,0.00,WeatherCatV1.13B119,2013-03-26 06:51:00,
2013-03-26 02:56:00,66.5,43.9,29.97,North,355,7.0,12.0,44,0.00,,,0.00,WeatherCatV1.13B119,2013-03-26 06:56:00,
2013-03-26 03:01:00,66.4,44.4,29.97,NNW,342,5.0,9.0,45,0.00,,,0.00,WeatherCatV1.13B119,2013-03-26 07:01:00,
2013-03-26 03:06:00,66.3,45.5,29.97,North,9,8.0,13.0,47,0.00,,,0.00,WeatherCatV1.13B119,2013-03-26 07:06:00,
2013-03-26 03:11:00,66.1,44.7,29.96,NNW,336,6.0,13.0,46,0.00,,,0.00,WeatherCatV1.13B119,2013-03-26 07:11:00,
2013-03-26 03:16:00,65.8,46.1,29.96,NW,317,4.0,12.0,49,0.00,,,0.01,WeatherCatV1.13B119,2013-03-26 07:16:00,
2013-03-26 03:21:00,65.3,45.1,29.96,NW,313,10.0,10.0,48,0.00,,,0.01,WeatherCatV1.13B119,2013-03-26 07:21:00,
2013-03-26 03:26:00,65.3,45.1,29.96,NW,313,10.0,10.0,48,0.00,,,0.01,WeatherCatV1.13B119,2013-03-26 07:26:00,
2013-03-26 03:31:00,-999.0,-99.9,29.96,North,-999,-999.0,0.0,-999,0.00,,,0.01,WeatherCatV1.13B119,2013-03-26 07:31:00,
2013-03-26 03:36:00,-999.0,-99.9,29.97,North,-999,-999.0,0.0,-999,0.00,,,0.01,WeatherCatV1.13B119,2013-03-26 07:36:00,
2013-03-26 03:41:00,-999.0,-99.9,29.96,North,-999,-999.0,0.0,-999,0.00,,,0.01,WeatherCatV1.13B119,2013-03-26 07:41:00,
2013-03-26 03:46:00,-999.0,-99.9,29.96,North,-999,-999.0,0.0,-999,0.00,,,0.01,WeatherCatV1.13B119,2013-03-26 07:46:00,
2013-03-26 03:51:00,-999.0,-99.9,29.97,North,-999,-999.0,0.0,-999,0.00,,,0.01,WeatherCatV1.13B119,2013-03-26 07:51:00,
2013-03-26 03:56:00,-999.0,-99.9,29.97,North,-999,-999.0,0.0,-999,0.00,,,0.01,WeatherCatV1.13B119,2013-03-26 07:56:00,
2013-03-26 04:01:00,-999.0,-99.9,29.97,North,-999,-999.0,0.0,-999,0.00,,,0.01,WeatherCatV1.13B119,2013-03-26 08:01:00,
2013-03-26 04:06:00,-999.0,-99.9,29.97,North,-999,-999.0,0.0,-999,0.00,,,0.01,WeatherCatV1.13B119,2013-03-26 08:06:00,
2013-03-26 04:11:00,-999.0,-99.9,29.97,North,-999,-999.0,0.0,-999,0.00,,,0.01,WeatherCatV1.13B119,2013-03-26 08:11:00,
2013-03-26 04:16:00,-999.0,-99.9,29.97,North,-999,-999.0,0.0,-999,0.00,,,0.01,WeatherCatV1.13B119,2013-03-26 08:16:00,
2013-03-26 04:21:00,-999.0,-99.9,29.97,North,-999,-999.0,0.0,-999,0.00,,,0.01,WeatherCatV1.13B119,2013-03-26 08:21:00,
2013-03-26 04:26:00,-999.0,-99.9,29.97,North,-999,-999.0,0.0,-999,0.00,,,0.01,WeatherCatV1.13B119,2013-03-26 08:26:00,
2013-03-26 04:31:00,-999.0,-99.9,29.97,North,-999,-999.0,0.0,-999,0.00,,,0.01,WeatherCatV1.13B119,2013-03-26 08:31:00,
2013-03-26 04:36:00,-999.0,-99.9,29.97,North,-999,-999.0,0.0,-999,0.00,,,0.01,WeatherCatV1.13B119,2013-03-26 08:36:00,
2013-03-26 04:41:00,-999.0,-99.9,29.97,North,-999,-999.0,0.0,-999,0.00,,,0.01,WeatherCatV1.13B119,2013-03-26 08:41:00,
2013-03-26 04:46:00,-999.0,-99.9,29.97,North,-999,-999.0,0.0,-999,0.00,,,0.01,WeatherCatV1.13B119,2013-03-26 08:46:00,
2013-03-26 04:51:00,-999.0,-99.9,29.97,North,-999,-999.0,0.0,-999,0.00,,,0.01,WeatherCatV1.13B119,2013-03-26 08:51:00,
2013-03-26 04:56:00,-999.0,-99.9,29.97,North,-999,-999.0,0.0,-999,0.00,,,0.01,WeatherCatV1.13B119,2013-03-26 08:56:00,
2013-03-26 05:01:00,-999.0,-99.9,29.97,North,-999,-999.0,0.0,-999,0.00,,,0.01,WeatherCatV1.13B119,2013-03-26 09:01:00,
2013-03-26 05:06:00,-999.0,-99.9,29.97,North,-999,-999.0,0.0,-999,0.00,,,0.01,WeatherCatV1.13B119,2013-03-26 09:06:00,
2013-03-26 05:11:00,-999.0,-99.9,29.98,North,-999,-999.0,0.0,-999,0.00,,,0.01,WeatherCatV1.13B119,2013-03-26 09:11:00,
2013-03-26 05:16:00,-999.0,-99.9,29.98,North,-999,-999.0,0.0,-999,0.00,,,0.01,WeatherCatV1.13B119,2013-03-26 09:16:00,
2013-03-26 05:21:00,-999.0,-99.9,29.98,North,-999,-999.0,0.0,-999,0.00,,,0.01,WeatherCatV1.13B119,2013-03-26 09:21:00,
2013-03-26 05:26:00,-999.0,-99.9,29.97,North,-999,-999.0,0.0,-999,0.00,,,0.01,WeatherCatV1.13B119,2013-03-26 09:26:00,
2013-03-26 05:31:00,-999.0,-99.9,29.97,North,-999,-999.0,0.0,-999,0.00,,,0.01,WeatherCatV1.13B119,2013-03-26 09:31:00,
2013-03-26 05:36:00,-999.0,-99.9,29.97,North,-999,-999.0,0.0,-999,0.00,,,0.01,WeatherCatV1.13B119,2013-03-26 09:36:00,
2013-03-26 05:41:00,-999.0,-99.9,29.97,North,-999,-999.0,0.0,-999,0.00,,,0.01,WeatherCatV1.13B119,2013-03-26 09:41:00,
2013-03-26 05:46:00,-999.0,-99.9,29.97,North,-999,-999.0,0.0,-999,0.00,,,0.01,WeatherCatV1.13B119,2013-03-26 09:46:00,
2013-03-26 05:51:00,-999.0,-99.9,29.97,North,-999,-999.0,0.0,-999,0.00,,,0.01,WeatherCatV1.13B119,2013-03-26 09:51:00,
2013-03-26 05:56:00,-999.0,-99.9,29.98,North,-999,-999.0,0.0,-999,0.00,,,0.01,WeatherCatV1.13B119,2013-03-26 09:56:00,
2013-03-26 06:01:00,-999.0,-99.9,29.98,North,-999,-999.0,0.0,-999,0.00,,,0.01,WeatherCatV1.13B119,2013-03-26 10:01:00,
2013-03-26 06:06:00,-999.0,-99.9,29.98,North,-999,-999.0,0.0,-999,0.00,,,0.01,WeatherCatV1.13B119,2013-03-26 10:06:00,
2013-03-26 06:11:00,-999.0,-99.9,29.98,North,-999,-999.0,0.0,-999,0.00,,,0.01,WeatherCatV1.13B119,2013-03-26 10:11:00,
2013-03-26 06:16:00,-999.0,-99.9,29.99,North,-999,-999.0,0.0,-999,0.00,,,0.01,WeatherCatV1.13B119,2013-03-26 10:16:00,
2013-03-26 06:21:00,-999.0,-99.9,29.99,North,-999,-999.0,0.0,-999,0.00,,,0.01,WeatherCatV1.13B119,2013-03-26 10:21:00,
2013-03-26 06:26:00,-999.0,-99.9,29.99,North,-999,-999.0,0.0,-999,0.00,,,0.01,WeatherCatV1.13B119,2013-03-26 10:26:00,
2013-03-26 06:31:00,-999.0,-99.9,30.00,North,-999,-999.0,0.0,-999,0.00,,,0.01,WeatherCatV1.13B119,2013-03-26 10:31:00,
2013-03-26 06:36:00,-999.0,-99.9,30.00,North,-999,-999.0,0.0,-999,0.00,,,0.01,WeatherCatV1.13B119,2013-03-26 10:36:00,
2013-03-26 06:41:00,-999.0,-99.9,30.00,North,-999,-999.0,0.0,-999,0.00,,,0.01,WeatherCatV1.13B119,2013-03-26 10:41:00,
2013-03-26 06:46:00,-999.0,-99.9,30.01,North,-999,-999.0,0.0,-999,0.00,,,0.01,WeatherCatV1.13B119,2013-03-26 10:46:00,
2013-03-26 06:51:00,-999.0,-99.9,30.00,North,-999,-999.0,0.0,-999,0.00,,,0.01,WeatherCatV1.13B119,2013-03-26 10:51:00,
2013-03-26 06:56:00,-999.0,-99.9,30.01,North,-999,-999.0,0.0,-999,0.00,,,0.01,WeatherCatV1.13B119,2013-03-26 10:56:00,
2013-03-26 07:01:00,-999.0,-99.9,30.01,North,-999,-999.0,0.0,-999,0.00,,,0.01,WeatherCatV1.13B119,2013-03-26 11:01:00,
2013-03-26 07:06:00,-999.0,-99.9,30.01,North,-999,-999.0,0.0,-999,0.00,,,0.01,WeatherCatV1.13B119,2013-03-26 11:06:00,
2013-03-26 07:11:00,-999.0,-99.9,30.02,North,-999,-999.0,0.0,-999,0.00,,,0.01,WeatherCatV1.13B119,2013-03-26 11:11:00,
2013-03-26 07:16:00,-999.0,-99.9,30.02,North,-999,-999.0,0.0,-999,0.00,,,0.01,WeatherCatV1.13B119,2013-03-26 11:16:00,
2013-03-26 07:21:00,-999.0,-99.9,30.02,North,-999,-999.0,0.0,-999,0.00,,,0.01,WeatherCatV1.13B119,2013-03-26 11:21:00,
2013-03-26 07:26:00,-999.0,-99.9,30.02,North,-999,-999.0,0.0,-999,0.00,,,0.01,WeatherCatV1.13B119,2013-03-26 11:26:00,
2013-03-26 07:31:00,-999.0,-99.9,30.02,North,-999,-999.0,0.0,-999,0.00,,,0.01,WeatherCatV1.13B119,2013-03-26 11:31:00,
2013-03-26 07:36:00,-999.0,-99.9,30.02,North,-999,-999.0,0.0,-999,0.00,,,0.01,WeatherCatV1.13B119,2013-03-26 11:36:00,
2013-03-26 07:41:00,-999.0,-99.9,30.02,North,-999,-999.0,0.0,-999,0.00,,,0.01,WeatherCatV1.13B119,2013-03-26 11:41:00,
2013-03-26 07:46:00,-999.0,-99.9,30.02,North,-999,-999.0,0.0,-999,0.00,,,0.01,WeatherCatV1.13B119,2013-03-26 11:46:00,
2013-03-26 07:51:00,-999.0,-99.9,30.02,North,-999,-999.0,0.0,-999,0.00,,,0.01,WeatherCatV1.13B119,2013-03-26 11:51:00,
2013-03-26 07:56:00,-999.0,-99.9,30.03,North,-999,-999.0,0.0,-999,0.00,,,0.01,WeatherCatV1.13B119,2013-03-26 11:56:00,
2013-03-26 08:01:00,-999.0,-99.9,30.03,North,-999,-999.0,0.0,-999,0.00,,,0.01,WeatherCatV1.13B119,2013-03-26 12:01:00,
2013-03-26 08:06:00,-999.0,-99.9,30.03,North,-999,-999.0,0.0,-999,0.00,,,0.01,WeatherCatV1.13B119,2013-03-26 12:06:00,
2013-03-26 08:11:00,-999.0,-99.9,30.03,North,-999,-999.0,0.0,-999,0.00,,,0.01,WeatherCatV1.13B119,2013-03-26 12:11:00,
2013-03-26 08:16:00,-999.0,-99.9,30.03,North,-999,-999.0,0.0,-999,0.00,,,0.01,WeatherCatV1.13B119,2013-03-26 12:16:00,
2013-03-26 08:21:00,-999.0,-99.9,30.04,North,-999,-999.0,0.0,-999,0.00,,,0.01,WeatherCatV1.13B119,2013-03-26 12:21:00,
2013-03-26 08:26:00,-999.0,-99.9,30.03,North,-999,-999.0,0.0,-999,0.00,,,0.01,WeatherCatV1.13B119,2013-03-26 12:26:00,
2013-03-26 08:31:00,-999.0,-99.9,30.04,North,-999,-999.0,0.0,-999,0.00,,,0.01,WeatherCatV1.13B119,2013-03-26 12:31:00,
2013-03-26 08:36:00,-999.0,-99.9,30.04,North,-999,-999.0,0.0,-999,0.00,,,0.01,WeatherCatV1.13B119,2013-03-26 12:36:00,
2013-03-26 08:41:00,-999.0,-99.9,30.04,North,-999,-999.0,0.0,-999,0.00,,,0.01,WeatherCatV1.13B119,2013-03-26 12:41:00,
2013-03-26 08:46:00,-999.0,-99.9,30.05,North,-999,-999.0,0.0,-999,0.00,,,0.01,WeatherCatV1.13B119,2013-03-26 12:46:00,
2013-03-26 08:51:00,60.2,48.4,30.05,NNE,22,2.0,20.0,65,0.00,,,0.01,WeatherCatV1.13B119,2013-03-26 12:51:00,
2013-03-26 08:56:00,60.3,48.9,30.05,NNW,347,10.0,21.0,66,0.00,,,0.01,WeatherCatV1.13B119,2013-03-26 12:56:00,
2013-03-26 09:01:00,60.4,48.6,30.05,NNE,19,6.0,20.0,65,0.00,,,0.01,WeatherCatV1.13B119,2013-03-26 13:01:00,
2013-03-26 09:06:00,60.4,48.6,30.05,NE,44,14.0,14.0,65,0.00,,,0.01,WeatherCatV1.13B119,2013-03-26 13:06:00,
2013-03-26 09:11:00,60.5,49.1,30.05,North,355,11.0,18.0,66,0.00,,,0.01,WeatherCatV1.13B119,2013-03-26 13:11:00,
2013-03-26 09:16:00,60.6,49.2,30.05,NW,325,11.0,20.0,66,0.00,,,0.01,WeatherCatV1.13B119,2013-03-26 13:16:00,
2013-03-26 09:21:00,60.7,48.9,30.06,NE,47,10.0,22.0,65,0.00,,,0.01,WeatherCatV1.13B119,2013-03-26 13:21:00,
2013-03-26 09:26:00,60.8,49.4,30.06,NW,323,2.0,21.0,66,0.00,,,0.01,WeatherCatV1.13B119,2013-03-26 13:26:00,
2013-03-26 09:31:00,60.8,49.8,30.07,NNE,19,4.0,20.0,67,0.00,,,0.01,WeatherCatV1.13B119,2013-03-26 13:31:00,
2013-03-26 09:36:00,60.9,49.9,30.06,NNE,21,7.0,13.0,67,0.00,,,0.01,WeatherCatV1.13B119,2013-03-26 13:36:00,
2013-03-26 09:41:00,61.0,50.4,30.06,NW,315,9.0,20.0,68,0.00,,,0.01,WeatherCatV1.13B119,2013-03-26 13:41:00,
2013-03-26 09:46:00,60.9,50.3,30.07,North,350,0.0,13.0,68,0.00,,,0.01,WeatherCatV1.13B119,2013-03-26 13:46:00,
2013-03-26 09:51:00,61.0,50.4,30.07,NNW,347,6.0,16.0,68,0.00,,,0.01,WeatherCatV1.13B119,2013-03-26 13:51:00,
2013-03-26 09:56:00,61.0,50.8,30.07,NW,323,6.0,14.0,69,0.00,,,0.01,WeatherCatV1.13B119,2013-03-26 13:56:00,
2013-03-26 10:01:00,61.1,51.2,30.07,NW,306,2.0,12.0,70,0.00,,,0.01,WeatherCatV1.13B119,2013-03-26 14:01:00,
2013-03-26 10:06:00,61.1,50.8,30.07,NNW,338,9.0,11.0,69,0.00,,,0.01,WeatherCatV1.13B119,2013-03-26 14:06:00,
2013-03-26 10:11:00,61.1,50.8,30.07,NNW,335,9.0,19.0,69,0.00,,,0.01,WeatherCatV1.13B119,2013-03-26 14:11:00,
2013-03-26 10:16:00,61.1,50.5,30.08,NNE,17,9.0,16.0,68,0.00,,,0.01,WeatherCatV1.13B119,2013-03-26 14:16:00,
2013-03-26 10:21:00,61.2,50.5,30.08,NW,323,7.0,16.0,68,0.00,,,0.01,WeatherCatV1.13B119,2013-03-26 14:21:00,
2013-03-26 10:26:00,61.1,50.5,30.08,NNW,333,11.0,18.0,68,0.00,,,0.01,WeatherCatV1.13B119,2013-03-26 14:26:00,
2013-03-26 10:31:00,61.1,50.8,30.07,NNW,340,8.0,12.0,69,0.00,,,0.01,WeatherCatV1.13B119,2013-03-26 14:31:00,
2013-03-26 10:36:00,61.2,51.3,30.07,NNW,342,10.0,13.0,70,0.00,,,0.01,WeatherCatV1.13B119,2013-03-26 14:36:00,
2013-03-26 10:41:00,61.2,50.9,30.07,NNW,348,10.0,16.0,69,0.00,,,0.01,WeatherCatV1.13B119,2013-03-26 14:41:00,
2013-03-26 10:46:00,61.4,51.1,30.07,NW,323,8.0,16.0,69,0.00,,,0.01,WeatherCatV1.13B119,2013-03-26 14:46:00,
2013-03-26 10:51:00,61.6,51.3,30.08,North,350,11.0,13.0,69,0.00,,,0.01,WeatherCatV1.13B119,2013-03-26 14:51:00,
2013-03-26 10:56:00,61.7,51.0,30.08,North,355,4.0,16.0,68,0.00,,,0.01,WeatherCatV1.13B119,2013-03-26 14:56:00,
2013-03-26 11:01:00,61.8,51.1,30.08,NNE,13,2.0,19.0,68,0.00,,,0.01,WeatherCatV1.13B119,2013-03-26 15:01:00,
2013-03-26 11:06:00,61.9,50.8,30.08,North,9,15.0,16.0,67,0.00,,,0.01,WeatherCatV1.13B119,2013-03-26 15:06:00,
2013-03-26 11:11:00,62.0,50.9,30.08,NNW,334,8.0,10.0,67,0.00,,,0.01,WeatherCatV1.13B119,2013-03-26 15:11:00,
2013-03-26 11:16:00,62.5,51.4,30.08,North,355,9.0,12.0,67,0.00,,,0.01,WeatherCatV1.13B119,2013-03-26 15:16:00,
2013-03-26 11:21:00,63.0,51.0,30.08,NNE,30,0.0,10.0,65,0.00,,,0.01,WeatherCatV1.13B119,2013-03-26 15:21:00,
2013-03-26 11:26:00,64.3,51.9,30.09,ENE,64,7.0,15.0,64,0.00,,,0.01,WeatherCatV1.13B119,2013-03-26 15:26:00,
2013-03-26 11:31:00,64.8,51.5,30.08,NNW,346,9.0,19.0,62,0.00,,,0.01,WeatherCatV1.13B119,2013-03-26 15:31:00,
2013-03-26 11:36:00,63.9,49.7,30.09,North,355,15.0,15.0,60,0.00,,,0.01,WeatherCatV1.13B119,2013-03-26 15:36:00,
2013-03-26 11:41:00,63.5,50.2,30.08,WNW,287,6.0,14.0,62,0.00,,,0.01,WeatherCatV1.13B119,2013-03-26 15:41:00,
2013-03-26 11:46:00,63.5,50.2,30.08,North,355,11.0,15.0,62,0.00,,,0.01,WeatherCatV1.13B119,2013-03-26 15:46:00,
2013-03-26 11:51:00,64.0,50.3,30.08,NW,313,1.0,11.0,61,0.00,,,0.01,WeatherCatV1.13B119,2013-03-26 15:51:00,
2013-03-26 11:56:00,64.6,50.4,30.08,NE,46,9.0,16.0,60,0.00,,,0.01,WeatherCatV1.13B119,2013-03-26 15:56:00,
2013-03-26 12:01:00,65.3,50.6,30.09,NNW,346,8.0,15.0,59,0.00,,,0.01,WeatherCatV1.13B119,2013-03-26 16:01:00,
2013-03-26 12:06:00,65.1,49.9,30.09,NNW,329,6.0,14.0,58,0.00,,,0.01,WeatherCatV1.13B119,2013-03-26 16:06:00,
2013-03-26 12:11:00,64.7,49.6,30.09,North,355,13.0,13.0,58,0.00,,,0.01,WeatherCatV1.13B119,2013-03-26 16:11:00,
2013-03-26 12:16:00,64.7,50.9,30.09,NNE,13,10.0,13.0,61,0.00,,,0.01,WeatherCatV1.13B119,2013-03-26 16:16:00,
2013-03-26 12:21:00,65.0,49.9,30.09,NNE,26,10.0,14.0,58,0.00,,,0.01,WeatherCatV1.13B119,2013-03-26 16:21:00,
2013-03-26 12:26:00,66.2,50.5,30.08,NNE,17,11.0,11.0,57,0.00,,,0.01,WeatherCatV1.13B119,2013-03-26 16:26:00,
2013-03-26 12:31:00,66.2,50.5,30.08,North,349,9.0,12.0,57,0.00,,,0.01,WeatherCatV1.13B119,2013-03-26 16:31:00,
2013-03-26 12:36:00,65.9,49.3,30.08,NNE,17,4.0,13.0,55,0.00,,,0.01,WeatherCatV1.13B119,2013-03-26 16:36:00,
2013-03-26 12:41:00,65.7,50.0,30.08,NW,325,11.0,12.0,57,0.00,,,0.01,WeatherCatV1.13B119,2013-03-26 16:41:00,
2013-03-26 12:46:00,65.4,49.3,30.08,NNW,345,12.0,13.0,56,0.00,,,0.01,WeatherCatV1.13B119,2013-03-26 16:46:00,
2013-03-26 12:51:00,65.2,49.6,30.08,WNW,292,4.0,12.0,57,0.00,,,0.01,WeatherCatV1.13B119,2013-03-26 16:51:00,
2013-03-26 12:56:00,65.3,50.1,30.08,North,355,9.0,11.0,58,0.00,,,0.01,WeatherCatV1.13B119,2013-03-26 16:56:00,
2013-03-26 13:01:00,65.0,49.4,30.08,NW,309,11.0,13.0,57,0.00,,,0.01,WeatherCatV1.13B119,2013-03-26 17:01:00,
2013-03-26 13:06:00,65.2,49.6,30.07,NW,318,4.0,12.0,57,0.00,,,0.01,WeatherCatV1.13B119,2013-03-26 17:06:00,
2013-03-26 13:11:00,65.8,50.1,30.07,North,349,0.0,14.0,57,0.00,,,0.01,WeatherCatV1.13B119,2013-03-26 17:11:00,
2013-03-26 13:16:00,66.1,49.5,30.07,NNW,335,6.0,10.0,55,0.00,,,0.01,WeatherCatV1.13B119,2013-03-26 17:16:00,
2013-03-26 13:21:00,66.2,48.6,30.07,NNW,327,8.0,11.0,53,0.00,,,0.01,WeatherCatV1.13B119,2013-03-26 17:21:00,
2013-03-26 13:26:00,66.7,48.5,30.07,NE,37,11.0,12.0,52,0.00,,,0.01,WeatherCatV1.13B119,2013-03-26 17:26:00,
2013-03-26 13:31:00,67.2,47.4,30.07,NW,326,6.0,9.0,49,0.00,,,0.01,WeatherCatV1.13B119,2013-03-26 17:31:00,
2013-03-26 13:36:00,68.2,47.8,30.07,WNW,286,4.0,14.0,48,0.00,,,0.01,WeatherCatV1.13B119,2013-03-26 17:36:00,
2013-03-26 13:41:00,68.5,49.1,30.07,North,9,9.0,11.0,50,0.00,,,0.01,WeatherCatV1.13B119,2013-03-26 17:41:00,
2013-03-26 13:46:00,68.9,49.5,30.06,WNW,290,1.0,10.0,50,0.00,,,0.01,WeatherCatV1.13B119,2013-03-26 17:46:00,
2013-03-26 13:51:00,69.1,47.4,30.07,WNW,296,5.0,8.0,46,0.00,,,0.01,WeatherCatV1.13B119,2013-03-26 17:51:00,
2013-03-26 13:56:00,69.6,47.9,30.06,NNW,338,8.0,10.0,46,0.00,,,0.01,WeatherCatV1.13B119,2013-03-26 17:56:00,
2013-03-26 14:01:00,70.1,47.8,30.06,NW,311,6.0,13.0,45,0.00,,,0.01,WeatherCatV1.13B119,2013-03-26 18:01:00,
2013-03-26 14:06:00,69.8,46.3,30.06,North,351,11.0,11.0,43,0.00,,,0.01,WeatherCatV1.13B119,2013-03-26 18:06:00,
2013-03-26 14:11:00,69.8,48.1,30.06,NNW,334,6.0,8.0,46,0.00,,,0.01,WeatherCatV1.13B119,2013-03-26 18:11:00,
2013-03-26 14:16:00,70.4,46.8,30.06,WNW,299,1.0,9.0,43,0.00,,,0.01,WeatherCatV1.13B119,2013-03-26 18:16:00,
2013-03-26 14:21:00,70.0,45.8,30.05,NW,321,11.0,11.0,42,0.00,,,0.01,WeatherCatV1.13B119,2013-03-26 18:21:00,
2013-03-26 14:26:00,70.2,47.9,30.05,North,11,2.0,8.0,45,0.00,,,0.01,WeatherCatV1.13B119,2013-03-26 18:26:00,
2013-03-26 14:31:00,70.6,47.0,30.05,NNW,327,9.0,13.0,43,0.00,,,0.01,WeatherCatV1.13B119,2013-03-26 18:31:00,
2013-03-26 14:36:00,70.2,44.7,30.05,North,349,12.0,13.0,40,0.00,,,0.01,WeatherCatV1.13B119,2013-03-26 18:36:00,
2013-03-26 14:41:00,70.1,43.3,30.06,NNE,18,6.0,9.0,38,0.00,,,0.01,WeatherCatV1.13B119,2013-03-26 18:41:00,
2013-03-26 14:46:00,70.3,44.8,30.05,NNW,336,8.0,9.0,40,0.00,,,0.01,WeatherCatV1.13B119,2013-03-26 18:46:00,
2013-03-26 14:51:00,70.3,43.5,30.05,NW,315,3.0,6.0,38,0.00,,,0.01,WeatherCatV1.13B119,2013-03-26 18:51:00,
2013-03-26 14:56:00,70.4,44.2,30.05,NNW,346,0.0,6.0,39,0.00,,,0.01,WeatherCatV1.13B119,2013-03-26 18:56:00,
2013-03-26 15:01:00,71.0,45.5,30.05,West,277,1.0,11.0,40,0.00,,,0.01,WeatherCatV1.13B119,2013-03-26 19:01:00,
2013-03-26 15:06:00,70.9,44.7,30.05,NNW,329,4.0,9.0,39,0.00,,,0.01,WeatherCatV1.13B119,2013-03-26 19:06:00,
2013-03-26 15:11:00,71.2,45.0,30.05,North,9,4.0,9.0,39,0.00,,,0.01,WeatherCatV1.13B119,2013-03-26 19:11:00,
2013-03-26 15:16:00,71.2,44.3,30.05,NNW,327,7.0,10.0,38,0.00,,,0.01,WeatherCatV1.13B119,2013-03-26 19:16:00,
2013-03-26 15:21:00,71.1,46.2,30.05,WNW,294,6.0,8.0,41,0.00,,,0.01,WeatherCatV1.13B119,2013-03-26 19:21:00,
2013-03-26 15:26:00,71.3,46.4,30.05,WNW,299,5.0,8.0,41,0.00,,,0.01,WeatherCatV1.13B119,2013-03-26 19:26:00,
2013-03-26 15:31:00,71.5,46.5,30.05,NE,38,2.0,10.0,41,0.00,,,0.01,WeatherCatV1.13B119,2013-03-26 19:31:00,
2013-03-26 15:36:00,71.3,45.1,30.04,NNW,336,7.0,7.0,39,0.00,,,0.01,WeatherCatV1.13B119,2013-03-26 19:36:00,
2013-03-26 15:41:00,71.3,46.4,30.04,NW,306,3.0,5.0,41,0.00,,,0.01,WeatherCatV1.13B119,2013-03-26 19:41:00,
2013-03-26 15:46:00,71.5,47.2,30.04,NNW,340,0.0,7.0,42,0.00,,,0.01,WeatherCatV1.13B119,2013-03-26 19:46:00,
2013-03-26 15:51:00,71.6,46.0,30.04,North,355,1.0,10.0,40,0.00,,,0.01,WeatherCatV1.13B119,2013-03-26 19:51:00,
2013-03-26 15:56:00,71.3,47.6,30.04,NNE,26,2.0,7.0,43,0.00,,,0.01,WeatherCatV1.13B119,2013-03-26 19:56:00,
2013-03-26 16:01:00,72.0,48.3,30.04,NNW,335,6.0,8.0,43,0.00,,,0.01,WeatherCatV1.13B119,2013-03-26 20:01:00,
2013-03-26 16:06:00,72.6,45.5,30.04,WNW,290,5.0,8.0,38,0.00,,,0.01,WeatherCatV1.13B119,2013-03-26 20:06:00,
2013-03-26 16:11:00,72.4,45.3,30.04,NW,317,3.0,8.0,38,0.00,,,0.01,WeatherCatV1.13B119,2013-03-26 20:11:00,
2013-03-26 16:16:00,71.7,48.6,30.04,NW,309,5.0,12.0,44,0.00,,,0.01,WeatherCatV1.13B119,2013-03-26 20:16:00,
2013-03-26 16:21:00,71.8,49.3,30.04,WSW,249,8.0,16.0,45,0.00,,,0.01,WeatherCatV1.13B119,2013-03-26 20:21:00,
2013-03-26 16:26:00,71.6,49.1,30.04,WNW,291,4.0,10.0,45,0.00,,,0.01,WeatherCatV1.13B119,2013-03-26 20:26:00,
2013-03-26 16:31:00,71.7,46.1,30.04,NW,322,2.0,8.0,40,0.00,,,0.01,WeatherCatV1.13B119,2013-03-26 20:31:00,
2013-03-26 16:36:00,72.1,48.4,30.04,NW,321,12.0,13.0,43,0.00,,,0.01,WeatherCatV1.13B119,2013-03-26 20:36:00,
2013-03-26 16:41:00,71.6,50.9,30.04,WNW,290,16.0,16.0,48,0.00,,,0.01,WeatherCatV1.13B119,2013-03-26 20:41:00,
2013-03-26 16:46:00,70.8,50.1,30.04,NW,310,8.0,14.0,48,0.00,,,0.01,WeatherCatV1.13B119,2013-03-26 20:46:00,
2013-03-26 16:51:00,70.6,49.9,30.04,WNW,298,13.0,18.0,48,0.00,,,0.01,WeatherCatV1.13B119,2013-03-26 20:51:00,
2013-03-26 16:56:00,70.4,50.3,30.04,WNW,297,4.0,19.0,49,0.00,,,0.01,WeatherCatV1.13B119,2013-03-26 20:56:00,
2013-03-26 17:01:00,70.3,51.3,30.04,WNW,284,8.0,15.0,51,0.00,,,0.01,WeatherCatV1.13B119,2013-03-26 21:01:00,
2013-03-26 17:06:00,70.2,51.2,30.04,WNW,301,11.0,15.0,51,0.00,,,0.01,WeatherCatV1.13B119,2013-03-26 21:06:00,
2013-03-26 17:11:00,70.0,51.6,30.04,WNW,286,15.0,15.0,52,0.00,,,0.01,WeatherCatV1.13B119,2013-03-26 21:11:00,
2013-03-26 17:16:00,69.7,51.3,30.05,NW,304,12.0,24.0,52,0.00,,,0.01,WeatherCatV1.13B119,2013-03-26 21:16:00,
2013-03-26 17:21:00,69.5,51.6,30.05,NW,304,13.0,18.0,53,0.00,,,0.01,WeatherCatV1.13B119,2013-03-26 21:21:00,
2013-03-26 17:26:00,69.4,51.5,30.05,WNW,299,7.0,18.0,53,0.00,,,0.01,WeatherCatV1.13B119,2013-03-26 21:26:00,
2013-03-26 17:31:00,69.4,52.5,30.05,WNW,300,4.0,19.0,55,0.00,,,0.01,WeatherCatV1.13B119,2013-03-26 21:31:00,
2013-03-26 17:36:00,69.3,53.4,30.05,WNW,294,9.0,15.0,57,0.00,,,0.01,WeatherCatV1.13B119,2013-03-26 21:36:00,
2013-03-26 17:41:00,69.1,52.2,30.05,NW,313,19.0,19.0,55,0.00,,,0.01,WeatherCatV1.13B119,2013-03-26 21:41:00,
2013-03-26 17:46:00,68.9,53.0,30.05,WNW,296,12.0,18.0,57,0.00,,,0.01,WeatherCatV1.13B119,2013-03-26 21:46:00,
2013-03-26 17:51:00,68.6,52.7,30.06,NW,304,6.0,20.0,57,0.00,,,0.01,WeatherCatV1.13B119,2013-03-26 21:51:00,
2013-03-26 17:56:00,68.4,53.5,30.06,WNW,289,9.0,22.0,59,0.00,,,0.01,WeatherCatV1.13B119,2013-03-26 21:56:00,
2013-03-26 18:01:00,68.2,52.8,30.06,WNW,295,7.0,13.0,58,0.00,,,0.01,WeatherCatV1.13B119,2013-03-26 22:01:00,
2013-03-26 18:06:00,68.0,53.1,30.06,WNW,302,12.0,25.0,59,0.00,,,0.01,WeatherCatV1.13B119,2013-03-26 22:06:00,
2013-03-26 18:11:00,67.6,52.8,30.06,WNW,296,5.0,18.0,59,0.00,,,0.01,WeatherCatV1.13B119,2013-03-26 22:11:00,
2013-03-26 18:16:00,67.4,52.6,30.06,WNW,298,4.0,19.0,59,0.00,,,0.01,WeatherCatV1.13B119,2013-03-26 22:16:00,
2013-03-26 18:21:00,67.3,52.9,30.06,NW,315,7.0,16.0,60,0.00,,,0.01,WeatherCatV1.13B119,2013-03-26 22:21:00,
2013-03-26 18:26:00,67.2,52.8,30.06,WNW,296,11.0,20.0,60,0.00,,,0.01,WeatherCatV1.13B119,2013-03-26 22:26:00,
2013-03-26 18:31:00,67.0,52.6,30.06,WNW,293,15.0,16.0,60,0.00,,,0.01,WeatherCatV1.13B119,2013-03-26 22:31:00,
2013-03-26 18:36:00,66.8,53.4,30.07,NW,316,12.0,23.0,62,0.00,,,0.01,WeatherCatV1.13B119,2013-03-26 22:36:00,
2013-03-26 18:41:00,66.7,53.7,30.07,WNW,290,7.0,18.0,63,0.00,,,0.01,WeatherCatV1.13B119,2013-03-26 22:41:00,
2013-03-26 18:46:00,66.6,53.6,30.07,NW,317,12.0,20.0,63,0.00,,,0.01,WeatherCatV1.13B119,2013-03-26 22:46:00,
2013-03-26 18:51:00,66.4,53.4,30.07,WSW,243,13.0,23.0,63,0.00,,,0.01,WeatherCatV1.13B119,2013-03-26 22:51:00,
2013-03-26 18:56:00,66.2,53.7,30.07,WNW,303,7.0,23.0,64,0.00,,,0.01,WeatherCatV1.13B119,2013-03-26 22:56:00,
2013-03-26 19:01:00,66.0,53.5,30.07,WSW,240,11.0,18.0,64,0.00,,,0.01,WeatherCatV1.13B119,2013-03-26 23:01:00,
2013-03-26 19:06:00,65.8,53.7,30.07,WNW,294,5.0,21.0,65,0.00,,,0.01,WeatherCatV1.13B119,2013-03-26 23:06:00,
2013-03-26 19:11:00,65.7,54.0,30.07,WNW,300,6.0,18.0,66,0.00,,,0.01,WeatherCatV1.13B119,2013-03-26 23:11:00,
2013-03-26 19:16:00,65.5,53.0,30.08,West,279,5.0,15.0,64,0.00,,,0.01,WeatherCatV1.13B119,2013-03-26 23:16:00,
2013-03-26 19:21:00,65.3,53.6,30.08,NW,304,18.0,18.0,66,0.00,,,0.01,WeatherCatV1.13B119,2013-03-26 23:21:00,
2013-03-26 19:26:00,65.2,53.5,30.08,WNW,292,6.0,16.0,66,0.00,,,0.01,WeatherCatV1.13B119,2013-03-26 23:26:00,
2013-03-26 19:31:00,65.1,53.9,30.08,WNW,291,6.0,15.0,67,0.00,,,0.01,WeatherCatV1.13B119,2013-03-26 23:31:00,
2013-03-26 19:36:00,65.0,53.8,30.08,WNW,302,2.0,11.0,67,0.00,,,0.01,WeatherCatV1.13B119,2013-03-26 23:36:00,
2013-03-26 19:41:00,64.9,53.7,30.09,WNW,298,20.0,20.0,67,0.00,,,0.01,WeatherCatV1.13B119,2013-03-26 23:41:00,
2013-03-26 19:46:00,64.9,54.1,30.08,WNW,293,5.0,15.0,68,0.00,,,0.01,WeatherCatV1.13B119,2013-03-26 23:46:00,
2013-03-26 19:51:00,64.8,54.0,30.09,WNW,295,8.0,14.0,68,0.00,,,0.01,WeatherCatV1.13B119,2013-03-26 23:51:00,
2013-03-26 19:56:00,64.7,53.9,30.09,WNW,292,10.0,14.0,68,0.00,,,0.01,WeatherCatV1.13B119,2013-03-26 23:56:00,
2013-03-26 20:01:00,64.6,53.8,30.09,WNW,291,8.0,15.0,68,0.00,,,0.01,WeatherCatV1.13B119,2013-03-27 00:01:00,
2013-03-26 20:06:00,64.5,53.7,30.09,NW,317,1.0,11.0,68,0.00,,,0.01,WeatherCatV1.13B119,2013-03-27 00:06:00,
2013-03-26 20:11:00,64.4,53.2,30.10,WNW,294,9.0,22.0,67,0.00,,,0.01,WeatherCatV1.13B119,2013-03-27 00:11:00,
2013-03-26 20:16:00,64.3,53.1,30.10,NW,304,6.0,10.0,67,0.00,,,0.01,WeatherCatV1.13B119,2013-03-27 00:16:00,
2013-03-26 20:21:00,64.2,52.6,30.11,WNW,296,8.0,19.0,66,0.00,,,0.01,WeatherCatV1.13B119,2013-03-27 00:21:00,
2013-03-26 20:26:00,64.1,52.9,30.11,NW,307,8.0,15.0,67,0.00,,,0.01,WeatherCatV1.13B119,2013-03-27 00:26:00,
2013-03-26 20:31:00,64.0,52.4,30.11,NW,311,11.0,13.0,66,0.00,,,0.01,WeatherCatV1.13B119,2013-03-27 00:31:00,
2013-03-26 20:36:00,63.8,52.6,30.11,NNW,330,16.0,16.0,67,0.00,,,0.01,WeatherCatV1.13B119,2013-03-27 00:36:00,
2013-03-26 20:41:00,63.7,52.1,30.12,North,355,9.0,18.0,66,0.00,,,0.01,WeatherCatV1.13B119,2013-03-27 00:41:00,
2013-03-26 20:46:00,63.6,51.2,30.12,NW,308,7.0,19.0,64,0.00,,,0.01,WeatherCatV1.13B119,2013-03-27 00:46:00,
2013-03-26 20:51:00,63.5,50.7,30.12,NW,320,4.0,16.0,63,0.00,,,0.01,WeatherCatV1.13B119,2013-03-27 00:51:00,
2013-03-26 20:56:00,63.4,51.0,30.12,NW,311,4.0,12.0,64,0.00,,,0.01,WeatherCatV1.13B119,2013-03-27 00:56:00,
2013-03-26 21:01:00,63.3,50.5,30.12,NNW,341,8.0,12.0,63,0.00,,,0.01,WeatherCatV1.13B119,2013-03-27 01:01:00,
2013-03-26 21:06:00,63.2,50.0,30.12,NW,319,7.0,13.0,62,0.00,,,0.01,WeatherCatV1.13B119,2013-03-27 01:06:00,
2013-03-26 21:11:00,63.1,50.3,30.13,WNW,303,6.0,13.0,63,0.00,,,0.01,WeatherCatV1.13B119,2013-03-27 01:11:00,
2013-03-26 21:16:00,63.0,50.2,30.13,WNW,299,7.0,14.0,63,0.00,,,0.01,WeatherCatV1.13B119,2013-03-27 01:16:00,
2013-03-26 21:21:00,62.9,49.7,30.13,NW,310,6.0,12.0,62,0.00,,,0.01,WeatherCatV1.13B119,2013-03-27 01:21:00,
2013-03-26 21:26:00,62.8,49.6,30.13,NW,307,15.0,15.0,62,0.00,,,0.01,WeatherCatV1.13B119,2013-03-27 01:26:00,
2013-03-26 21:31:00,62.6,49.0,30.13,NW,311,9.0,14.0,61,0.00,,,0.01,WeatherCatV1.13B119,2013-03-27 01:31:00,
2013-03-26 21:36:00,62.5,49.3,30.13,WNW,303,5.0,14.0,62,0.00,,,0.01,WeatherCatV1.13B119,2013-03-27 01:36:00,
2013-03-26 21:41:00,62.5,49.3,30.14,NW,309,5.0,13.0,62,0.00,,,0.01,WeatherCatV1.13B119,2013-03-27 01:41:00,
2013-03-26 21:46:00,62.3,49.5,30.14,NW,315,13.0,23.0,63,0.00,,,0.01,WeatherCatV1.13B119,2013-03-27 01:46:00,
2013-03-26 21:51:00,62.1,48.0,30.14,NW,307,9.0,13.0,60,0.00,,,0.01,WeatherCatV1.13B119,2013-03-27 01:51:00,
2013-03-26 21:56:00,62.0,48.0,30.15,WNW,299,5.0,18.0,60,0.00,,,0.01,WeatherCatV1.13B119,2013-03-27 01:56:00,
2013-03-26 22:01:00,61.8,47.8,30.15,NNE,18,12.0,18.0,60,0.00,,,0.01,WeatherCatV1.13B119,2013-03-27 02:01:00,
2013-03-26 22:07:00,61.6,47.1,30.15,NNE,16,13.0,20.0,59,0.00,,,0.01,WeatherCatV1.13B119,2013-03-27 02:07:00,
2013-03-26 22:12:00,61.3,47.3,30.16,NW,313,5.0,18.0,60,0.00,,,0.01,WeatherCatV1.13B119,2013-03-27 02:12:00,
2013-03-26 22:17:00,61.2,47.2,30.16,WNW,300,16.0,16.0,60,0.00,,,0.01,WeatherCatV1.13B119,2013-03-27 02:17:00,
2013-03-26 22:22:00,61.0,47.5,30.16,NW,326,10.0,16.0,61,0.00,,,0.01,WeatherCatV1.13B119,2013-03-27 02:22:00,
2013-03-26 22:27:00,60.9,47.8,30.16,NW,319,11.0,18.0,62,0.00,,,0.01,WeatherCatV1.13B119,2013-03-27 02:27:00,
2013-03-26 22:32:00,60.7,48.0,30.16,NW,305,9.0,11.0,63,0.00,,,0.01,WeatherCatV1.13B119,2013-03-27 02:32:00,
2013-03-26 22:37:00,60.6,47.5,30.16,NW,323,9.0,16.0,62,0.00,,,0.01,WeatherCatV1.13B119,2013-03-27 02:37:00,
2013-03-26 22:42:00,60.4,46.4,30.16,North,350,10.0,21.0,60,0.00,,,0.01,WeatherCatV1.13B119,2013-03-27 02:42:00,
2013-03-26 22:47:00,60.1,46.2,30.17,WNW,284,13.0,20.0,60,0.00,,,0.01,WeatherCatV1.13B119,2013-03-27 02:47:00,
2013-03-26 22:52:00,59.9,46.0,30.17,WNW,286,4.0,15.0,60,0.00,,,0.01,WeatherCatV1.13B119,2013-03-27 02:52:00,
2013-03-26 22:57:00,59.7,45.3,30.17,West,271,5.0,20.0,59,0.00,,,0.01,WeatherCatV1.13B119,2013-03-27 02:57:00,
2013-03-26 23:02:00,59.6,45.7,30.17,NW,311,7.0,21.0,60,0.00,,,0.01,WeatherCatV1.13B119,2013-03-27 03:02:00,
2013-03-26 23:07:00,59.4,45.1,30.17,NW,315,9.0,16.0,59,0.00,,,0.01,WeatherCatV1.13B119,2013-03-27 03:07:00,
2013-03-26 23:12:00,59.2,44.9,30.18,North,355,13.0,18.0,59,0.00,,,0.01,WeatherCatV1.13B119,2013-03-27 03:12:00,
2013-03-26 23:17:00,59.0,43.8,30.17,NNW,348,10.0,19.0,57,0.00,,,0.01,WeatherCatV1.13B119,2013-03-27 03:17:00,
2013-03-26 23:22:00,58.8,44.1,30.18,NNW,336,7.0,14.0,58,0.00,,,0.01,WeatherCatV1.13B119,2013-03-27 03:22:00,
2013-03-26 23:27:00,58.6,43.9,30.18,NW,311,8.0,18.0,58,0.00,,,0.01,WeatherCatV1.13B119,2013-03-27 03:27:00,
2013-03-26 23:32:00,58.5,44.2,30.18,NNW,336,4.0,16.0,59,0.00,,,0.01,WeatherCatV1.13B119,2013-03-27 03:32:00,
2013-03-26 23:37:00,58.3,44.0,30.18,NNW,345,9.0,11.0,59,0.00,,,0.01,WeatherCatV1.13B119,2013-03-27 03:37:00,
2013-03-26 23:42:00,58.1,43.4,30.18,NW,326,7.0,18.0,58,0.00,,,0.01,WeatherCatV1.13B119,2013-03-27 03:42:00,
2013-03-26 23:46:00,57.9,42.3,30.18,NNW,342,9.0,14.0,56,0.00,,,0.01,WeatherCatV1.13B119,2013-03-27 03:46:00,
2013-03-26 23:51:00,57.8,43.1,30.18,NNW,336,7.0,13.0,58,0.00,,,0.01,WeatherCatV1.13B119,2013-03-27 03:51:00,
2013-03-26 23:56:00,57.6,42.0,30.18,NW,323,9.0,14.0,56,0.00,,,0.01,WeatherCatV1.13B119,2013-03-27 03:56:00,